DAAP

Details ICAO DAAP (VVZ)
Name ILLIZI TAKHAMALT
Region Algeria
Timezone Africa/Algiers (UTC+1.0)
Plans Departing 18
Arriving 25
Stats Elevation 1,778 ft / 542 m (AMSL)
Location 26.723534° 8.622653°
Runways 1
Magnetic Variation 1.521° E
Sunrise 2018-05-22 04:36:28 UTC / 2018-05-22 05:36:28 Local
Sunset 2018-05-22 18:10:45 UTC / 2018-05-22 19:10:45 Local
Advertisement - Login to hide

Runways

ID Width Length Bearing (true) Bearing (mag) Surface Threshold Offset Overrun Length
09 148 ft / 45 m 9,902 ft / 3,018 m 90.46° 88.94° Asphalt 0 ft / 0 m 0 ft / 0 m
27 148 ft / 45 m 9,902 ft / 3,018 m 270.47° 268.95° Asphalt 0 ft / 0 m 0 ft / 0 m

Map

Weather


0- 5 10 15 20 25 30 35+ Temperature / ° C

Clouds and Precipitation
Forecast for 2018-05-22 18:00 UTC. Updated an hour ago

Ground ~20,000 ft ~40,000 ft Winds

METAR

DAAP 221800Z 29016KT 5000 SCT046 BKN100 28/21 Q1016

TAF

Not found

Frequencies

Tower 118.70 MHz TWR
Tower 119.70 MHz TWR
Warning: Do not use this data for real-world aviation or navigation. No guarantee of current accuracy is given.